Disclaimer

Please do not use the information listed here in-flight or in-navigation, as they are not provided to us by the airports but are provided by volunteers, so they might be outdated.

Search


Regions


Airport information page

Radio informations:
TORONTO TRML - 133.4 MHz

Airport informations:
Latitude: 43° 55' 22.00" N
Longitude: 078° 53' 42.00" W
Elevation: 459 feet - 140 meters
Operating hours: Remarks
Operating agency: Civil government, landing fees and diplomatic clearance may be required
Timezone: UTC-5(-4DT) - Second Sunday in March at 0200 to first Sunday in November at 0200 local time (Exception Arizona and that portion of Indiana in the Eastern Time Zone)
Fuel: Jet A1, without icing nhibitor.

80/87 octane gasoline, leaded, MIL-L-5572F (RED)

100/130 MIL Spec, low lead, aviation gasoline (BLUE)

Runway information:
04/22 - 2670 x 100 feet< - >814 x 30 meters
12/30 - 4000 x 100 feet< - >1219 x 30 meters

Recent METARs:
CYOO 200500Z AUTO 01014KT 1SM -SN VV014 M17/M19 A2990 RMK SLP139
CYOO 200500Z AUTO 01014KT 1SM -SN VV014 M17/M19 A2990 RMK SLP139
CYOO 200600Z AUTO 01015G21KT 1SM -SN VV016 M17/M20 A2985 RMK SLP123

Airport on the map: